Simultaneous Nadir Overpasses (SNOs) Predictions

Prediction of SNOs between AQUA and METOP-A Satellite Orbit:

Table of predicted SNOs for the next 14.0 days since TLE Epoch: 4/19/2013
Index Date (AQUA) Time (AQUA) Lat,Lon (AQUA) SZA (AQUA ) Date (METOP-A) Time (METOP-A) Lat,Lon (METOP-A) SZA (METOP-A ) Distance(km) Time Diff (sec)
1 04/20/2013 23:46:20 -73.89, -2.36 117.96 04/20/2013 23:45:12 -73.89, -2.25 117.95 3.54 68
2 04/21/2013 00:35:49 73.96, 165.11 62.11 04/21/2013 00:35:51 73.95, 165.21 62.09 3.68 2
3 04/21/2013 01:25:17 -74.09, -27.54 117.77 04/21/2013 01:26:29 -74.12, -27.03 117.76 15.88 72
4 04/23/2013 19:20:35 -73.89, 64.07 118.91 04/23/2013 19:19:36 -73.88, 64.12 118.91 1.90 59
5 04/23/2013 20:10:03 73.92,-128.36 61.12 04/23/2013 20:10:15 73.93,-128.42 61.13 2.37 12
6 04/23/2013 20:59:38 -74.40, 38.17 118.39 04/23/2013 21:00:47 -74.40, 40.08 118.45 57.08 69
7 04/26/2013 14:54:48 -73.88, 130.55 119.84 04/26/2013 14:53:59 -73.85, 130.47 119.85 3.24 49
8 04/26/2013 15:44:17 73.96, -62.01 60.24 04/26/2013 15:44:37 73.96, -61.95 60.24 2.13 20
9 04/29/2013 10:29:02 -73.90,-163.06 120.71 04/29/2013 10:28:22 -73.88,-163.06 120.72 2.26 40
10 04/29/2013 11:18:30 73.94, 4.49 59.33 04/29/2013 11:19:01 73.93, 4.40 59.32 2.88 31
11 05/02/2013 06:03:15 -73.91, -96.63 121.55 05/02/2013 06:02:45 -73.90, -96.60 121.56 1.12 30
12 05/02/2013 06:52:43 73.95, 70.91 58.49 05/02/2013 06:53:24 73.95, 70.85 58.49 1.70 41




NCC Satellite Simultaneous Nadir Overpasses (SNOs) Prediction Service
